Location: La Verpilli�re
(46.4808°N, 3.0419°E)
Time: 20:04:55
(UTC+00:00)

Daily predictions for brighter satellites

Satellite Brightness Start Highest point End
(mag) Time Altitude Azimuth Time Altitude Azimuth Time Altitude Azimuth
ATLAS CENTAUR R/B 2.9 20:17:41 10° NNW 20:20:41 23° NE 20:23:39 10° E
Cosmos 2219 Rocket 3.2 20:16:17 10° SSE 20:20:43 25° ESE 20:25:12 10° NE
ERS-1 Rocket 4.2 20:17:40 10° ESE 20:21:54 28° ENE 20:26:10 10° N
Cosmos 1818 3.6 20:16:33 10° SSW 20:21:56 68° ESE 20:27:21 10° NE
Cosmos 2360 Rocket 2.2 20:17:26 10° SSW 20:23:01 70° ESE 20:28:40 10° NNE
USA 215 4.0 20:19:12 10° ENE 20:24:43 28° SE 20:30:12 10° S
SPOT 5 4.2 20:23:52 10° ESE 20:27:59 27° ENE 20:31:58 10° N
Atlas Centaur 2 3.9 20:26:24 10° SW 20:30:05 17° S 20:34:19 10° SE
Landsat 7 4.1 20:26:43 10° SSE 20:31:20 53° ENE 20:35:59 10° N
Cosmos 1825 Rocket 3.9 20:28:16 10° SSE 20:32:33 50° E 20:36:52 10° NNE
Cosmos 2333 Rocket 2.9 20:29:22 10° S 20:34:26 35° ESE 20:39:34 10° NE
CZ-2C R/B 3.7 20:30:36 10° N 20:35:49 49° WNW 20:40:54 10° SW
Cosmos 1812 Rocket 4.1 20:35:24 10° NNW 20:39:40 57° W 20:43:54 10° S
GEOS 3 Rocket 4.0 20:35:14 10° NE 20:40:27 47° ESE 20:45:36 10° SSW
SL-16 R/B 3.7 20:38:08 10° SW 20:43:29 41° NW 20:48:52 10° NNE
Spot 2 Rocket 3.5 20:39:51 10° SSE 20:44:56 78° ENE 20:50:03 10° NNW
Cosmos 1315 Rocket 4.0 20:43:02 10° N 20:46:39 29° ENE 20:49:46 13° SE
IGS 5A 3.5 20:42:36 10° SSE 20:46:44 74° ENE 20:50:54 10° N
ATLAS 5 CENTAUR R/B 1.6 20:47:20 10° SW 20:51:28 81° NW 20:56:09 10° NE
Meteor 2-10 Rocket 4.3 20:48:03 10° NNW 20:53:00 51° W 20:58:06 10° S
CARTOSAT-1 4.1 20:49:41 13° SE 20:53:19 45° ENE 20:57:27 10° N
Cosmos 2278 Rocket 3.4 20:48:50 10° N 20:53:51 31° NE 20:58:50 10° ESE
Cosmos 1844 Rocket 2.9 20:50:44 10° NNW 20:56:17 68° WSW 21:01:37 11° SSE
Cosmos 1709 Rocket 4.0 20:50:48 10° S 20:57:03 74° E 21:03:24 10° NNE
USA 267 4.1 20:51:45 10° E 20:57:57 47° NNE 21:04:11 10° NW
Meteor 1-11 4.3 20:57:53 10° S 21:03:26 65° E 21:09:05 10° NNE
SPOT 1/Viking Rocket 3.6 21:00:43 11° SSE 21:05:37 90° N 21:10:49 10° NNW
Cosmos-2242 3.4 21:03:16 10° NNW 21:07:36 65° W 21:11:54 10° S
Cosmos 1400 Rocket 3.2 21:04:22 10° NNW 21:08:18 58° W 21:12:01 11° S
Cosmos 2221 3.5 21:08:37 10° N 21:12:36 32° ENE 21:15:14 17° SE
Lacrosse 5 rocket 4.1 21:10:48 10° NW 21:13:52 19° N 21:16:49 10° NE
Resurs 01 Rocket 3.6 21:11:31 10° SSW 21:15:10 25° W 21:18:51 10° NW
Terra 2.2 21:14:58 18° SE 21:18:22 53° ENE 21:23:01 10° N
SAR-Lupe-2 3.5 21:15:46 10° NNE 21:19:23 87° W 21:22:58 10° SSW
NOSS 3-4 (A) 4.5 21:22:38 10° NNW 21:29:16 49° NE 21:36:04 12° ESE
Cosmos 2058 4.1 21:27:37 21° SE 21:29:18 27° E 21:32:49 10° NNE
NOSS 3-4 (C) 4.5 21:22:45 10° NNW 21:29:22 48° NE 21:36:12 12° ESE
NOSS 3-3 (A) 3.9 21:32:47 10° SW 21:38:39 86° SE 21:45:18 10° NE
NOSS 3-3 (C) 3.9 21:32:53 10° SW 21:38:45 85° SE 21:45:25 10° NE
Cosmos 1825 4.1 21:39:57 14° E 21:40:33 15° E 21:42:43 10° NE
Cosmos 1980 4.1 21:41:49 20° S 21:45:20 44° ESE 21:50:40 10° NE
Cosmos 1538 Rocket 4.2 21:40:37 10° SSW 21:45:58 76° WNW 21:51:20 10° NNE
Cosmos 1076 Rocket 4.1 21:47:32 27° SE 21:49:14 40° E 21:53:15 10° NNE
Nadezhda 3 Rocket 4.4 21:45:17 10° N 21:51:31 52° ENE 21:55:18 23° SE
COSMOS 2428 2.9 21:47:00 10° SSW 21:52:39 74° WNW 21:58:22 10° NNE
Cosmos 2154 Rocket 4.3 21:49:47 23° SSE 21:53:27 50° E 21:59:24 10° NNE
Cosmos 2084 3.8 21:49:37 10° NW 21:54:00 56° SW 21:56:03 29° S
Cosmos 2151 4.5 21:55:43 20° ESE 21:56:44 22° E 22:00:02 10° NE
ATLAS 2AS CENTAUR R/B 3.2 21:49:44 10° NW 21:57:20 62° NE 22:02:39 18° ESE
DELTA 2 R/B (1) 4.1 21:52:40 10° SW 21:57:41 35° SSE 22:01:15 17° ESE
Cosmos 2074 Rocket 3.9 21:54:31 18° S 21:59:20 86° E 22:05:36 10° N
Thor Agena Rocket 4.3 21:55:06 10° NNE 21:59:42 33° E 22:01:29 26° SE
ATLAS CENTAUR R/B 1.8 21:56:16 10° NW 21:59:44 40° WSW 22:00:56 30° SSW
ERS-1 Rocket 3.9 21:56:48 16° SSW 22:00:32 42° W 22:05:19 10° NNW
Cosmos 1869 3.3 21:56:44 10° N 22:00:44 80° W 22:02:34 31° S
BREEZE-M DEB (TANK) 2.6 21:56:12 10° WNW 22:01:24 55° N 22:03:24 16° E
Genesis I 3.7 22:00:58 36° SE 22:01:37 39° ESE 22:05:16 10° NE
Cosmos 2237 Rocket 2.3 21:59:40 22° S 22:03:18 57° ESE 22:08:54 10° NNE
Cosmos 1842 Rocket 3.8 21:59:58 10° NNW 22:04:17 62° W 22:06:35 26° SSW
Cosmos 2219 Rocket 2.9 21:58:49 10° SW 22:04:17 55° WNW 22:09:49 10° NNE
SPOT 5 3.8 22:02:26 17° SSW 22:05:53 42° W 22:10:28 10° NNW
USA 215 3.2 22:01:40 10° NE 22:08:16 89° SE 22:14:50 10° SW
Cosmos 2344 3.8 22:05:02 18° S 22:10:20 48° ESE 22:17:48 10° NE
Cosmos 158 Rocket 3.9 22:09:32 30° S 22:11:46 57° ESE 22:16:35 10° NNE
Gblst 52 Del rocket 4.4 22:08:05 10° WNW 22:13:46 64° SW 22:17:15 27° SE
Cosmos 2112 Rocket 4.1 22:12:33 28° S 22:15:14 59° ESE 22:20:32 10° NNE
Elektron 1 4.1 22:15:07 36° SSW 22:16:18 67° SE 22:21:12 10° NE
Atlas Centaur 2 4.2 22:14:35 10° SW 22:17:13 15° SSW 22:17:13 15° SSW
Cosmos 2333 Rocket 3.4 22:13:13 10° SW 22:18:36 42° NW 22:24:03 10° NNE
ALOS 2 4.0 22:18:57 20° ESE 22:20:48 27° ENE 22:24:31 10° N
Cosmos 2327 Rocket 4.4 22:17:25 24° S 22:21:22 87° E 22:27:31 10° N
Iridium 2 3.8 22:21:05 10° N 22:24:54 63° E 22:25:48 46° SE
Cosmos 1892 2.9 22:26:26 33° SSW 22:27:56 63° W 22:31:43 10° N
NOSS 0 Rocket 4.0 22:22:19 10° SSW 22:28:27 78° WNW 22:34:40 10° NNE
EO 1 Del DPAF 3.5 22:25:44 10° NNE 22:29:24 49° E 22:29:55 45° SE
Cosmos 2056 Rocket 3.7 22:24:30 10° NNW 22:29:55 67° ENE 22:32:26 32° SE
GP-B 4.2 22:28:02 10° NNE 22:31:59 30° E 22:33:05 27° ESE
Cosmos 1295 Rocket 4.4 22:29:35 29° S 22:32:53 77° E 22:39:00 10° N
Cosmos 1606 3.6 22:32:58 10° N 22:36:36 36° ENE 22:37:25 32° ESE
Cosmos 2278 Rocket 2.7 22:32:42 10° NW 22:38:10 49° WSW 22:40:40 30° SSW
Cosmos 1408 2.5 22:37:57 51° SSW 22:38:44 76° W 22:42:19 10° N
USA 267 3.2 22:36:39 25° SE 22:40:43 80° SW 22:47:20 10° NW
Cosmos 2297 4.1 22:35:13 10° NNW 22:40:54 56° ENE 22:43:51 27° SE
Cosmos 44 3.3 22:40:50 42° SE 22:41:12 43° ESE 22:45:22 10° NE
Cosmos 1943 Rocket 3.6 22:36:27 10° N 22:41:28 31° NE 22:45:29 14° ESE
MOS 1-B Rocket 4.3 22:35:22 10° NNE 22:43:02 73° ESE 22:46:38 30° S
Cosmos 1680 Rocket 3.7 22:39:45 21° SSW 22:43:18 72° WNW 22:48:39 10° NNE
SL-16 R/B 2.5 22:46:34 36° SSE 22:48:25 49° ESE 22:53:52 10° NE
Cosmos 371 Rocket 4.0 22:44:39 10° N 22:49:20 45° ENE 22:51:21 29° ESE
Cosmos 2221 4.3 22:46:26 10° NNW 22:50:00 25° W 22:52:05 17° SW
CREW DRAGON DEMO-1 DEB 3.1 22:53:16 60° NE 22:53:16 60° NE 22:55:53 10° ENE
APEX 4.4 22:51:26 10° N 22:53:40 21° NE 22:53:52 21° ENE
Lacrosse 5 rocket 3.5 22:50:48 10° NW 22:54:10 24° NNE 22:57:22 10° ENE
Terra 3.8 22:53:51 13° SW 22:56:26 19° W 22:59:51 10° NW
Cosmos 1452 Rocket 4.3 22:51:46 10° N 22:56:48 42° ENE 22:59:20 25° ESE
Cosmos 1766 Rocket 3.5 23:01:32 51° SSE 23:02:30 70° E 23:06:54 10° NNE
Cosmos 1328 Rocket 3.7 23:00:51 10° N 23:05:08 61° E 23:06:06 47° SE
Okean 3 Rocket 3.5 23:07:35 49° S 23:08:45 88° W 23:13:13 10° N
IRIDIUM 103 4.4 23:08:14 42° SSE 23:09:57 68° E 23:15:09 10° N
Meteor 2-3 Rocket 4.0 23:12:54 38° SSE 23:14:49 56° E 23:20:23 10° NNE
Cosmos 1825 3.1 23:14:44 35° WSW 23:15:41 42° WNW 23:19:20 10° N
Cosmos 1340 2.7 23:15:33 57° ESE 23:15:42 58° E 23:19:25 10° NNE
Cosmos 2228 Rocket 4.5 23:15:47 10° N 23:19:53 31° ENE 23:21:26 25° ESE
NOSS 3-4 (A) 4.2 23:13:34 10° NW 23:20:20 50° WSW 23:23:28 32° S
NOSS 3-4 (C) 4.2 23:13:40 10° NW 23:20:27 50° WSW 23:23:36 33° S
Cosmos 2218 Rocket 4.0 23:17:43 37° S 23:20:28 79° E 23:26:48 10° N
Aureole 2 Rocket 3.2 23:18:46 10° NW 23:20:49 36° WNW 23:20:49 36° WNW
Cosmos 2366 rocket 4.0 23:21:57 37° S 23:24:41 81° E 23:31:04 10° N
Meteor 1-26 Rocket 4.4 23:19:58 10° N 23:26:00 75° ENE 23:28:23 38° SSE
IRIDIUM 106 4.3 23:26:31 44° S 23:28:15 84° W 23:33:31 10° N
Cosmos 2369 Rocket 2.9 23:24:38 10° NNW 23:30:03 47° ENE 23:33:18 23° ESE
Cosmos 1743 Rocket 4.2 23:29:40 38° ESE 23:30:18 41° E 23:34:24 10° NNE
SL-4 R/B 3.6 23:33:31 17° N 23:33:31 17° N 23:34:07 10° N
Cosmos 1959 Rocket 4.4 23:30:32 37° S 23:33:09 86° W 23:39:24 10° N
Cosmos 304 Rocket 4.2 23:28:29 10° NNW 23:33:15 55° ENE 23:35:00 35° ESE
Cosmos 2151 4.2 23:32:17 27° WSW 23:33:48 36° WNW 23:37:46 10° N
YAOGAN 11 4.4 23:33:15 42° SE 23:34:25 57° ENE 23:38:46 10° N
Helios 1A 3.0 23:34:08 54° SE 23:34:56 71° ENE 23:39:04 10° N
Cosmos 1933 3.4 23:31:05 10° NNW 23:35:04 63° W 23:35:34 57° SW
COSMOS 2455 2.9 23:32:45 10° NNW 23:38:51 80° ENE 23:41:47 32° SE
Dummy Sat-01 4.5 23:35:04 10° N 23:38:52 85° E 23:39:07 77° SSE
DELTA 2 R/B (1) 4.3 23:38:18 10° WSW 23:42:01 34° SW 23:42:01 34° SW
Cosmos 2237 Rocket 4.0 23:42:53 10° WSW 23:47:44 28° NW 23:52:36 10° N
ATLAS 2AS CENTAUR R/B 3.5 23:41:20 10° NW 23:47:54 35° WSW 23:50:03 29° SSW
Cosmos 1812 4.4 23:47:06 10° NNE 23:50:21 25° ENE 23:51:25 22° E
USA 215 4.4 23:44:48 10° NE 23:50:56 44° NNW 23:57:04 10° W
Cosmos 1151 Rocket 3.7 23:47:48 10° NNW 23:51:51 40° W 23:52:34 37° WSW
Cosmos 1782 2.6 23:48:40 10° N 23:52:38 85° ENE 23:53:04 70° SSE
Cosmos 1408 Rocket 3.8 23:52:07 46° SW 23:53:08 59° WNW 23:57:30 10° N
CZ-2D R/B 4.4 23:53:08 10° ENE 23:54:44 11° E 23:56:21 10° ESE
